New York JFK, NY

12:47 AM EDT on June 27, 2017 (GMT -0400)
Kennedy International

Weather History for KJFK - May, 2013

Change the Weather History Date:

Wednesday, May 15, 2013

  Actual Average Record
Temperature  
Mean Temperature 55 °F 60 °F  
Max Temperature 62 °F 68 °F 82 °F (2007)
Min Temperature 48 °F 52 °F 44 °F (1966)
Degree Days  
Heating Degree Days 10 5  
Month to date heating degree days 123 109  
Since 1 July heating degree days 4643 4760  
Cooling Degree Days 0 1  
Month to date cooling degree days 0 6  
Year to date cooling degree days 0 9  
Growing Degree Days 5 (Base 50)    
Moisture  
Dew Point 49 °F    
Average Humidity 72    
Maximum Humidity 87    
Minimum Humidity 57    
Precipitation  
Precipitation 0.03 in 0.12 in 1.18 in (1981)
Month to date precipitation 2.73 1.75  
Year to date precipitation 11.95 15.15  
Snow  
Snow 0.00 in 0.00 in - ()
Month to date snowfall 0.0 0.0  
Since 1 July snowfall 17.6 23.8  
Snow Depth 0.00 in    
Sea Level Pressure  
Sea Level Pressure 29.90 in    
Wind  
Wind Speed 12 mph (South)    
Max Wind Speed 22 mph    
Max Gust Speed 29 mph    
Visibility 10 miles    
Events Rain    
T = Trace of Precipitation, MM = Missing Value Source: NWS Daily Summary

Daily Weather History Graph

Daily Weather History Graph

Search for Another Location

Airport or City:

Trip Planner

Search our weather history database for the weather conditions in past years. The results will help you decide how hot, cold, wet, or windy it might be!

Date:

Astronomy

May. 15, 2013 Rise Set
Actual Time 5:38 AM EDT 8:05 PM EDT
Civil Twilight 5:07 AM EDT 8:36 PM EDT
Nautical Twilight 4:28 AM EDT 9:15 PM EDT
Astronomical Twilight 3:45 AM EDT 9:58 PM EDT
Moon 10:11 AM EDT (5/15) No Moon Set
Length of Visible Light 15h 29m
Length of Day
14h 27m
Waxing Crescent, 26% of the Moon is Illuminated
May 15
Waxing Crescent
May 18
First Quarter
May 25
Full
May 31
Last Quarter
Jun 8
New

Hourly Weather History & Observations

Time (EDT) Temp. Dew Point Humidity Pressure Visibility Wind Dir Wind Speed Gust Speed Precip Events Conditions
12:51 AM 50.0 °F 37.9 °F 63% 30.08 in 10.0 mi SW 6.9 mph - N/A   Partly Cloudy
1:51 AM 50.0 °F 37.9 °F 63% 30.08 in 10.0 mi SW 11.5 mph - N/A   Scattered Clouds
2:51 AM 50.0 °F 37.9 °F 63% 30.07 in 10.0 mi SW 5.8 mph - N/A   Mostly Cloudy
3:51 AM 51.1 °F 39.9 °F 66% 30.06 in 10.0 mi SW 6.9 mph - N/A   Mostly Cloudy
4:51 AM 52.0 °F 42.1 °F 69% 30.06 in 10.0 mi SSW 9.2 mph - N/A   Mostly Cloudy
5:51 AM 52.0 °F 43.0 °F 71% 30.05 in 10.0 mi SW 4.6 mph - N/A   Mostly Cloudy
6:51 AM 54.0 °F 45.0 °F 72% 30.06 in 10.0 mi SSW 9.2 mph - N/A   Overcast
7:51 AM 55.0 °F 50.0 °F 83% 30.04 in 10.0 mi SSW 11.5 mph - N/A   Mostly Cloudy
8:51 AM 57.9 °F 50.0 °F 75% 30.03 in 10.0 mi South 13.8 mph - N/A   Mostly Cloudy
9:51 AM 59.0 °F 46.9 °F 64% 30.00 in 10.0 mi SSE 12.7 mph - N/A   Mostly Cloudy
10:51 AM 59.0 °F 44.1 °F 58% 29.99 in 10.0 mi South 13.8 mph - N/A   Overcast
11:51 AM 57.0 °F 45.0 °F 64% 29.97 in 10.0 mi SSE 12.7 mph - 0.00 in   Overcast
12:51 PM 57.9 °F 48.0 °F 70% 29.91 in 10.0 mi SE 18.4 mph 24.2 mph 0.00 in   Overcast
1:51 PM 62.1 °F 52.0 °F 70% 29.89 in 10.0 mi South 17.3 mph 26.5 mph 0.00 in   Overcast
2:51 PM 60.1 °F 52.0 °F 75% 29.86 in 10.0 mi South 17.3 mph 24.2 mph 0.00 in   Mostly Cloudy
3:51 PM 60.1 °F 54.0 °F 80% 29.78 in 10.0 mi South 19.6 mph - 0.01 in Rain Light Rain
4:51 PM 60.1 °F 53.1 °F 78% 29.74 in 10.0 mi South 17.3 mph 25.3 mph N/A   Scattered Clouds
5:51 PM 62.1 °F 53.1 °F 72% 29.73 in 10.0 mi South 18.4 mph - N/A   Mostly Cloudy
6:51 PM 61.0 °F 53.1 °F 75% 29.72 in 10.0 mi South 13.8 mph - N/A   Mostly Cloudy
7:51 PM 59.0 °F 53.1 °F 81% 29.71 in 10.0 mi South 13.8 mph - N/A   Scattered Clouds
8:51 PM 57.0 °F 53.1 °F 87% 29.71 in 10.0 mi South 6.9 mph - N/A   Scattered Clouds
9:51 PM 57.0 °F 53.1 °F 87% 29.72 in 10.0 mi South 6.9 mph - N/A   Scattered Clouds
10:51 PM 60.1 °F 55.0 °F 83% 29.73 in 10.0 mi North 8.1 mph - N/A   Mostly Cloudy
11:51 PM 59.0 °F 55.0 °F 87% 29.73 in 8.0 mi ESE 3.5 mph - 0.02 in   Scattered Clouds